GFSMW_sfc_rhum_009.txt.gz
RH
24 26 29 29 32 36 43 51 56 64 55 53 76 52 46 46 41 38 67 59 59 61 63 56 63 57 59 71 52 47 49 39 40 40 35 34 38 35 33 29 28 31 29
22 28 30 30 31 38 45 56 61 67 65 57 63 52 56 44 36 40 53 52 70 60 63 64 51 55 46 52 54 56 46 37 41 43 38 37 43 50 29 30 28 32 26
20 26 30 32 32 38 46 55 65 68 68 68 63 58 62 49 49 42 50 49 57 56 62 62 62 58 52 32 55 52 54 43 42 52 46 39 41 43 40 40 31 35 30
19 22 28 33 32 37 42 53 63 68 66 72 61 74 57 48 37 39 36 44 58 54 55 60 54 59 42 56 51 45 56 56 44 39 40 51 52 42 37 43 34 33 31
18 20 25 30 31 33 38 47 63 71 69 73 73 56 64 41 36 33 52 57 62 51 46 53 54 55 43 55 58 54 62 50 45 38 37 52 39 47 39 37 34 31 31
17 21 22 26 30 31 35 43 65 74 73 72 73 74 70 60 41 44 42 43 43 48 53 50 57 56 50 53 53 58 58 60 56 47 47 37 37 36 36 36 40 35 33
16 19 24 25 31 36 39 43 61 74 72 68 69 72 71 70 66 56 46 51 37 38 61 60 62 53 59 54 56 61 59 57 53 60 44 48 40 36 35 36 36 36 35
16 16 21 26 33 35 41 45 56 71 71 68 72 72 72 52 49 56 44 41 37 38 60 59 56 56 52 54 57 48 47 54 51 57 63 44 44 38 34 36 57 70 59
15 17 18 22 29 34 42 47 55 65 66 60 70 73 71 70 53 61 62 44 52 36 46 54 58 56 51 55 58 48 56 55 54 57 61 51 38 33 32 36 54 71 68
14 16 17 20 25 28 34 42 48 60 59 59 62 63 66 70 67 64 64 60 53 55 56 58 58 56 56 59 64 55 57 58 48 41 56 59 41 41 36 55 42 36 40
13 15 16 18 22 24 30 36 42 52 56 56 58 61 61 61 66 64 63 64 60 63 58 66 62 59 61 63 67 63 55 57 63 62 57 59 62 46 38 35 37 36 39
12 15 15 17 20 24 26 29 33 37 46 50 59 61 61 61 61 67 64 67 68 64 64 65 68 60 64 72 65 62 55 54 56 56 63 58 45 70 70 46 66 56 56
11 14 15 17 20 22 26 24 29 28 32 45 48 55 58 60 62 67 64 70 70 70 62 66 71 65 63 62 64 64 73 56 54 55 59 58 62 70 54 62 56 49 53
17 15 17 20 21 25 32 30 26 24 27 33 37 52 58 59 58 64 69 67 73 73 69 67 70 68 65 64 61 61 62 63 59 58 58 58 62 69 72 68 77 65 59
18 21 21 27 32 33 36 35 28 30 28 37 38 47 58 59 61 64 69 71 73 73 71 69 69 70 54 48 66 57 57 68 63 56 55 58 61 69 71 61 73 78 59
11 21 24 26 33 35 38 38 37 34 35 44 42 50 61 65 66 69 73 78 77 74 72 70 72 64 47 61 75 63 53 60 64 61 62 64 70 67 82 83 87 88 83
10 19 24 27 31 32 39 40 43 38 43 48 49 53 63 68 71 72 78 82 82 75 73 70 63 63 62 90 82 79 51 54 59 70 67 59 47 65 56 81 93 93 90
12 15 19 26 34 29 30 36 40 51 53 57 56 58 63 68 72 78 81 84 80 77 73 72 66 68 65 87 84 83 57 60 63 61 66 71 67 64 80 75 82 80 69
10 15 20 26 38 35 39 44 44 50 52 56 60 60 60 66 68 75 78 78 81 79 71 69 74 76 70 87 88 82 63 67 69 63 64 62 76 80 91 79 83 80 73
10 19 23 27 35 38 36 44 45 49 53 56 57 61 64 67 67 72 83 82 80 76 61 64 77 78 72 91 91 85 74 71 68 82 80 94 80 96 90 76 73 68 63
21 26 28 39 43 40 37 50 48 49 47 50 54 61 64 69 70 75 81 81 82 82 83 79 77 71 73 76 96 94 79 51 48 65 63 64 90 88 90 89 66 67 71
27 28 36 42 41 42 47 53 57 55 57 59 60 66 69 63 73 85 79 82 87 83 80 83 76 61 78 91 94 95 96 88 62 68 64 92 92 88 89 81 78 80 78
34 32 36 46 44 50 52 59 66 63 64 66 70 73 80 77 79 83 85 83 84 82 73 70 72 78 91 91 99 100 99 99 77 86 95 90 89 82 78 84 82 86 51
36 36 40 48 54 54 53 62 66 65 69 77 85 85 83 81 80 74 75 79 75 68 65 69 80 78 75 72 65 84 75 96 83 83 64 64 70 84 77 67 70 55 50
40 43 48 54 59 61 65 62 66 67 68 75 79 82 74 78 82 77 74 70 73 68 56 61 66 58 59 83 80 80 73 54 63 59 47 50 47 44 52 59 66 64 46
47 53 53 58 63 64 67 68 68 66 68 71 65 65 65 71 76 71 69 97 92 99 99 93 76 63 87 91 87 85 83 78 77 50 43 38 36 36 37 44 46 42 44

GFSMW_sfc_rhum_015.txt.gz
RH
33 36 36 36 45 55 58 59 70 70 69 79 84 91 92 85 78 68 73 83 84 84 89 89 85 79 88 76 73 81 75 78 74 70 70 75 56 60 58 54 52 51 60
32 36 36 36 43 56 55 63 64 84 71 74 78 83 80 82 75 78 84 82 78 85 81 89 89 88 89 84 74 75 84 82 76 70 85 76 63 65 47 54 47 58 59
31 36 35 37 39 52 63 62 62 82 78 78 78 88 92 89 85 78 83 77 78 85 84 88 90 83 79 82 77 77 80 80 81 68 77 82 87 70 70 54 54 58 58
29 33 35 38 38 52 60 63 68 77 78 81 77 85 86 88 82 76 73 80 85 84 84 84 88 84 84 86 80 77 78 87 81 84 70 75 72 80 67 68 57 56 53
26 32 36 35 37 46 54 68 68 70 73 83 75 82 87 73 78 83 72 91 92 83 81 86 88 79 78 88 82 77 78 85 91 87 86 78 86 75 74 79 63 64 60
23 30 32 35 37 45 55 66 74 75 79 74 87 84 82 84 76 80 95 83 75 87 88 85 80 77 79 86 81 82 83 87 89 88 89 84 76 77 77 83 75 67 63
22 24 33 38 39 47 54 67 74 78 80 78 76 87 78 79 83 88 86 82 81 90 89 83 83 80 80 84 82 76 80 82 83 87 86 87 84 76 73 69 80 72 77
21 23 32 34 40 43 54 64 73 74 78 80 81 74 89 70 72 80 86 75 73 72 79 77 77 79 74 84 86 86 84 84 84 77 80 80 82 83 72 64 75 79 84
18 22 27 32 40 42 56 58 76 75 77 77 82 80 77 80 76 85 83 84 71 72 77 80 77 75 78 79 85 89 84 86 86 79 82 80 76 79 77 72 70 69 76
23 22 25 31 39 40 49 54 70 74 76 72 80 81 78 75 73 90 80 83 76 81 75 82 75 84 75 85 91 86 88 86 90 86 87 82 83 82 79 78 75 78 72
22 22 25 29 38 39 46 53 64 73 76 77 74 80 81 80 74 84 83 81 79 84 78 78 80 78 80 84 91 86 83 90 84 84 83 87 82 81 78 85 78 76 77
19 21 24 27 38 40 42 50 65 70 72 74 76 77 80 80 80 74 82 89 73 84 77 76 80 78 75 78 84 82 75 84 90 84 84 79 70 84 82 84 87 89 88
28 23 22 29 37 40 41 47 56 68 69 73 76 77 77 80 80 77 77 83 79 78 78 79 77 79 79 79 82 80 83 89 83 87 83 83 75 87 88 85 83 88 82
21 28 23 29 32 39 42 44 50 59 67 72 75 77 76 76 76 77 75 78 81 86 75 76 77 76 80 74 80 83 86 89 86 85 84 77 75 82 89 84 87 86 94
24 33 27 29 33 39 42 43 46 49 60 68 73 73 73 73 76 77 80 77 79 82 87 84 84 85 82 73 89 82 85 91 90 86 81 73 76 80 86 91 88 94 94
28 35 33 28 32 35 42 43 46 48 50 64 68 68 71 74 77 80 82 85 82 89 86 91 88 89 79 82 85 80 84 92 91 82 80 79 80 80 85 85 85 84 92
28 32 36 33 31 35 38 44 46 45 50 57 65 66 68 76 77 80 82 90 87 86 93 87 90 90 88 93 90 88 87 82 82 81 80 79 66 84 83 87 86 93 91
24 33 30 47 38 36 36 39 43 48 51 56 63 64 70 72 77 78 84 79 86 83 95 96 96 92 95 89 94 89 88 90 87 85 89 92 87 88 86 92 94 95 95
14 18 37 42 48 36 38 40 43 49 49 56 59 62 66 72 76 81 79 80 92 95 98 98 96 95 96 94 96 88 82 79 77 87 89 93 92 90 97 92 95 93 93
15 13 18 34 38 47 40 41 44 49 49 47 57 59 62 70 79 78 82 97 96 98 98 97 94 94 92 93 89 89 75 79 92 92 92 93 90 100 100 96 98 96 91
23 24 30 41 43 53 41 44 43 44 51 46 82 68 71 79 79 94 97 97 97 95 97 94 88 80 87 96 91 92 78 83 96 97 96 96 100 99 100 100 97 94 90
50 34 54 54 66 60 53 60 56 66 68 78 84 90 88 87 95 97 96 96 95 95 93 87 89 96 96 98 97 94 92 98 95 94 97 97 100 100 100 99 94 86 78
67 73 64 76 78 75 64 76 89 81 81 86 91 88 89 92 96 97 98 99 98 95 94 88 95 98 98 98 99 98 96 100 97 97 99 100 100 99 98 95 90 83 83
69 71 78 84 88 85 82 84 81 80 84 91 95 93 94 95 95 97 95 94 95 91 90 96 99 98 98 99 100 100 99 99 96 96 99 95 91 92 86 87 91 88 86
76 72 78 87 89 86 86 81 84 86 92 92 96 96 95 95 98 98 99 91 94 90 97 97 96 98 100 99 99 99 99 99 92 94 94 96 95 94 92 94 88 78 79
90 89 86 89 93 92 93 92 92 92 95 95 93 92 90 88 87 86 86 93 95 93 95 97 91 92 100 99 95 99 98 100 95 96 96 94 94 94 95 93 91 93 87

GFSMW_sfc_rhum_021.txt.gz
RH
52 50 50 48 51 60 66 68 71 74 76 86 93 95 83 93 93 89 86 85 88 90 90 92 94 94 94 91 88 88 78 81 87 69 73 82 72 67 65 70 87 81 84
54 51 52 50 49 60 65 69 68 70 74 73 74 84 87 90 87 89 86 87 88 91 89 93 95 96 96 92 90 80 86 91 88 80 90 84 71 70 60 67 69 86 87
51 52 49 47 49 58 66 70 69 68 71 71 78 96 95 96 95 93 92 87 86 87 89 92 96 96 93 90 84 80 84 80 89 82 82 91 85 87 78 63 62 84 88
42 46 46 49 50 56 62 66 68 68 70 73 75 71 75 79 96 92 91 85 87 81 90 91 94 96 98 90 82 82 86 82 84 93 82 85 84 78 73 79 69 69 66
41 42 46 46 47 53 61 66 69 68 68 72 68 71 70 69 92 94 89 95 95 89 87 90 93 87 96 90 82 89 92 88 82 86 89 90 94 79 82 79 75 79 75
40 40 38 43 49 50 59 66 73 71 69 73 71 72 70 79 92 95 94 97 98 98 93 89 93 88 89 87 84 89 88 94 93 94 95 88 73 84 80 85 86 82 73
36 38 40 41 46 53 60 65 71 75 73 76 74 74 71 76 77 84 81 97 99 98 96 94 97 89 88 89 88 89 86 92 93 89 90 94 88 86 83 72 86 78 79
32 35 36 38 41 48 58 63 70 74 77 78 77 74 70 70 69 79 78 78 92 90 86 89 91 88 83 89 89 93 91 91 90 88 91 92 90 86 80 69 82 83 86
30 32 33 35 38 42 53 61 66 67 78 79 77 77 73 71 74 85 78 81 84 86 91 89 89 88 81 86 90 95 92 93 92 92 94 92 88 90 89 89 75 66 76
29 29 30 31 35 38 45 55 60 62 68 75 73 75 76 75 76 83 85 89 86 86 91 91 87 86 82 86 91 95 92 95 96 93 92 93 91 84 90 86 84 78 71
27 27 28 28 32 36 42 53 58 60 60 70 71 72 75 76 78 78 82 87 89 90 87 88 85 85 83 85 89 95 94 92 94 94 93 88 90 91 91 92 92 89 83
27 25 24 27 32 37 40 53 56 60 58 64 68 71 72 75 80 77 78 84 85 87 84 86 86 84 81 80 85 91 86 88 92 92 94 92 85 93 93 89 89 76 88
30 28 32 31 32 37 40 52 55 60 58 64 68 70 72 76 79 79 75 89 83 85 84 84 85 85 83 84 80 84 87 86 86 87 90 93 91 91 91 91 90 89 92
31 33 34 35 34 37 42 51 56 58 59 64 69 73 74 75 74 74 76 79 87 89 85 84 84 82 81 81 83 82 88 88 85 90 88 88 88 88 74 80 84 91 94
31 32 27 36 37 39 44 48 55 60 59 65 70 72 74 74 77 79 77 76 85 83 86 86 86 85 82 79 83 89 91 91 90 88 95 93 89 83 78 84 91 93 97
28 26 24 27 32 35 43 44 55 60 62 67 71 71 76 77 81 84 85 83 85 86 90 90 87 90 83 85 87 82 92 92 94 96 93 93 93 89 88 84 83 89 92
24 26 23 22 24 30 37 44 52 55 66 70 70 73 76 81 84 85 88 90 87 90 96 91 90 93 89 90 90 88 93 96 96 91 93 90 84 92 90 91 91 93 91
26 24 20 28 31 32 36 39 47 58 67 71 73 75 78 80 83 87 90 91 88 95 97 96 94 91 91 94 93 91 92 96 94 92 93 90 89 95 94 93 94 97 98
25 27 29 24 28 32 37 42 49 56 67 72 73 75 79 81 83 89 90 90 89 90 97 96 96 95 96 98 96 96 94 97 96 96 92 95 95 95 96 95 96 95 96
25 32 42 45 39 36 38 45 50 56 67 70 71 72 77 81 85 85 87 85 90 94 96 97 96 98 97 100 98 96 98 99 97 98 96 96 96 98 98 96 97 96 95
26 26 44 50 40 43 44 49 50 55 56 63 66 70 76 80 81 83 89 94 96 96 96 96 98 98 98 100 99 99 98 98 99 98 98 97 96 99 100 99 97 96 96
96 86 38 35 55 53 45 50 53 49 52 56 64 72 74 78 80 91 94 96 96 96 99 99 100 100 99 99 99 98 99 95 93 97 97 96 98 100 100 100 100 100 96
97 98 98 86 62 54 59 49 49 50 54 58 61 68 74 77 86 95 96 98 97 98 99 99 99 99 100 99 100 99 94 98 96 94 99 100 100 100 100 100 100 99 98
73 92 96 97 97 94 93 71 48 52 56 60 61 66 76 79 88 94 95 94 98 99 99 99 99 99 100 100 99 99 99 100 100 100 99 98 99 100 99 99 99 98 96
85 77 86 89 89 91 92 84 89 75 63 59 73 74 81 89 97 99 99 98 98 99 99 99 98 98 98 98 99 99 98 98 100 100 99 99 98 98 98 97 97 97 96
94 91 84 83 86 88 89 78 88 98 85 88 93 94 97 99 99 99 100 100 100 100 100 100 100 100 99 100 100 100 100 100 100 99 98 98 98 97 97 96 95 96 92

GFSMW_sfc_rhum_024.txt.gz
RH
58 56 56 57 62 69 75 79 83 86 87 91 95 95 88 90 90 88 89 90 90 90 92 91 93 89 92 88 85 83 78 76 81 73 72 75 69 64 65 73 76 76 74
60 59 57 55 58 68 73 80 81 83 85 84 84 88 87 90 87 87 88 89 89 90 88 92 92 92 91 89 88 82 80 82 79 78 78 77 70 64 60 69 70 77 75
60 60 60 57 55 66 73 77 80 81 82 83 85 95 94 94 91 89 90 87 89 89 90 91 93 93 91 88 88 83 81 79 85 78 78 79 76 75 70 66 68 77 76
56 57 57 59 56 59 67 73 77 79 80 83 83 86 81 81 83 86 87 86 88 89 90 90 91 93 92 90 87 81 82 83 82 84 77 79 79 72 68 69 67 65 64
53 56 55 54 54 55 61 69 77 78 80 82 79 82 80 78 88 90 88 90 92 89 87 90 92 92 91 92 88 87 89 82 82 80 80 82 78 76 72 69 66 69 67
48 49 50 52 52 52 58 66 77 79 78 81 80 82 81 85 87 93 88 88 93 90 90 90 90 91 90 92 88 88 89 90 84 82 84 78 74 73 72 73 76 69 67
45 46 48 50 52 56 61 67 77 81 78 80 80 79 79 82 84 85 84 92 93 96 94 92 92 89 89 88 89 90 88 89 87 88 81 82 77 75 74 70 73 70 69
42 43 44 47 51 55 61 68 75 80 78 79 81 80 80 74 74 79 78 82 84 87 92 91 89 90 88 86 89 85 82 88 86 88 86 81 79 76 73 71 74 72 71
38 41 42 43 48 52 58 68 74 77 77 76 78 80 79 78 77 81 81 79 85 84 91 90 90 91 87 87 89 84 86 87 87 87 87 81 79 79 75 72 71 71 68
33 34 37 39 42 45 52 60 67 74 73 75 75 74 77 78 77 80 83 82 83 87 91 91 90 91 88 87 89 88 88 90 85 82 89 88 80 79 78 76 76 70 70
31 32 33 35 38 39 48 56 62 69 70 76 77 76 76 77 77 80 81 83 83 88 90 91 92 91 89 88 87 88 88 88 90 88 88 88 88 78 78 79 78 74 70
34 32 30 32 35 39 41 53 58 61 65 73 78 78 78 79 78 81 80 84 86 88 87 90 91 90 88 87 87 86 83 86 88 87 91 86 77 88 87 81 86 79 81
41 37 34 34 34 38 42 45 53 54 57 65 73 76 76 79 81 82 79 86 87 89 86 88 90 90 88 88 86 85 85 85 84 84 87 87 88 89 84 84 82 81 79
45 42 38 34 35 39 44 48 52 52 56 58 68 75 75 76 77 80 80 84 86 88 88 88 89 88 87 85 84 84 87 86 84 87 86 86 86 87 88 85 87 85 91
47 49 40 40 45 46 49 50 54 58 58 64 65 72 75 75 78 82 83 82 88 86 85 87 87 87 84 78 86 86 87 89 88 89 89 87 87 89 85 78 86 92 88
41 47 44 44 46 45 51 52 58 60 62 68 68 71 76 78 80 83 85 86 89 88 89 88 87 88 79 85 89 84 89 89 91 93 92 90 91 92 90 85 84 86 88
29 44 42 39 41 42 48 50 55 57 65 70 71 75 78 82 82 83 85 86 88 90 93 89 88 90 88 91 91 89 90 93 93 93 93 93 86 90 88 92 88 90 88
31 39 38 36 36 34 34 49 53 63 68 72 74 77 80 82 83 86 88 87 84 88 92 93 92 90 89 94 92 91 89 93 93 92 92 92 90 92 92 92 91 91 91
28 31 34 36 42 44 50 53 56 64 71 73 75 77 79 82 83 88 89 87 87 88 93 93 94 94 93 96 96 94 92 95 94 93 93 93 92 95 94 92 93 92 96
28 33 38 44 42 49 50 54 56 64 70 74 73 75 79 82 84 85 87 86 87 91 92 95 94 92 92 99 97 95 95 97 97 97 95 96 93 97 97 93 94 96 95
49 36 46 51 60 58 58 58 58 63 62 66 72 77 79 82 80 84 84 90 93 93 95 94 95 94 94 97 99 97 95 96 98 98 98 98 99 100 100 100 97 96 95
98 90 67 70 67 69 68 71 72 64 69 74 76 80 81 78 78 86 91 94 93 95 97 97 96 97 97 100 100 100 100 99 94 97 97 97 99 100 100 100 100 98 93
96 96 93 93 94 95 89 76 90 75 72 78 84 82 81 82 82 91 95 95 95 94 96 98 97 97 100 99 100 100 100 100 95 91 98 100 100 100 100 100 100 100 82
78 92 91 87 87 90 89 90 91 93 77 81 85 85 84 85 84 87 87 87 94 97 98 98 98 99 99 99 99 98 99 99 97 99 98 99 99 100 98 98 98 90 82
92 84 85 87 88 86 84 82 84 95 93 83 84 85 82 88 94 98 98 94 93 94 95 96 99 99 99 99 100 100 99 97 98 98 96 93 92 94 96 96 94 86 80
94 94 96 95 96 94 92 88 86 92 99 96 92 92 94 95 99 99 99 100 100 100 100 100 98 98 100 99 100 100 100 100 100 93 94 93 89 89 86 87 89 86 81

GFSMW_sfc_rhum_030.txt.gz
RH
33 33 36 36 39 43 51 57 60 66 60 57 54 50 44 43 40 39 48 54 57 60 65 51 57 55 54 64 59 53 58 41 44 34 35 36 35 34 31 28 27 33 31
32 36 36 36 37 44 51 59 63 68 66 56 57 47 45 39 39 40 50 56 56 62 62 68 59 61 48 67 66 66 45 42 36 36 35 37 35 31 28 30 30 32 27
34 35 36 36 36 43 51 58 66 68 68 64 56 56 48 46 44 44 47 53 58 59 65 65 56 65 60 52 66 64 61 41 41 49 40 37 34 33 33 41 31 39 30
31 32 34 36 36 41 45 55 63 68 67 69 61 72 51 47 41 44 44 46 57 56 57 64 62 68 51 60 76 57 56 61 42 42 40 51 51 35 38 34 36 35 34
30 32 33 34 34 38 42 49 63 71 70 73 69 59 64 44 39 39 58 67 61 58 52 60 64 67 57 61 68 66 70 52 39 36 40 47 38 45 37 36 37 37 33
27 30 32 32 34 35 40 46 64 74 73 70 72 73 71 62 45 50 45 45 45 48 59 57 65 66 62 64 64 70 70 64 53 37 42 35 36 35 37 36 40 36 36
26 28 32 34 35 38 42 45 60 72 71 68 69 71 71 71 66 61 52 54 42 40 54 64 66 59 69 63 65 73 67 68 59 63 39 36 36 33 32 32 33 34 32
23 26 31 34 38 38 43 47 56 69 68 67 74 75 75 55 55 59 46 46 41 42 50 58 60 63 62 64 66 60 59 62 60 63 59 36 37 37 35 35 34 37 34
24 26 28 31 36 40 45 50 58 67 66 61 70 75 73 70 55 63 62 46 56 41 49 54 62 60 62 65 69 57 65 59 64 58 62 49 34 36 34 34 33 34 35
22 24 26 28 31 34 38 46 52 61 62 60 62 62 65 70 67 64 67 62 54 58 51 57 59 60 62 65 71 61 64 68 55 47 57 60 36 39 37 35 34 34 35
19 20 22 24 26 30 35 40 46 54 56 57 61 62 60 60 65 63 65 66 61 62 62 63 61 59 62 66 71 68 60 70 68 61 57 64 60 37 35 37 36 37 37
14 15 17 20 24 28 30 34 39 42 48 53 62 63 63 63 59 67 64 67 69 63 66 64 65 62 59 64 69 69 58 66 68 66 66 62 50 65 56 39 59 47 46
15 16 15 17 21 25 30 30 34 34 36 49 51 55 58 60 63 66 66 68 69 68 58 63 68 66 62 64 65 67 66 63 65 64 66 64 59 64 48 54 44 43 47
17 17 17 18 20 26 34 37 31 32 33 37 43 54 59 60 60 65 68 65 69 70 68 66 67 65 62 60 60 62 65 64 62 64 63 62 62 64 66 56 62 53 45
13 17 22 24 29 30 36 41 35 35 34 42 42 51 60 62 63 67 69 68 68 68 68 68 66 66 57 49 64 63 63 66 65 64 64 63 65 72 68 53 63 67 58
11 11 16 22 27 31 36 36 42 39 40 47 47 53 62 67 68 70 72 73 71 71 71 69 68 67 50 63 76 68 60 66 69 68 66 65 79 78 82 80 80 68 68
13 14 14 16 23 26 32 35 43 40 46 52 54 58 64 69 71 69 73 75 75 72 75 71 69 70 68 74 80 83 56 63 66 69 67 62 53 75 66 86 87 85 89
12 13 9 11 18 19 15 28 31 49 51 57 58 61 65 68 71 73 74 76 72 74 73 73 73 71 66 83 84 83 66 63 64 66 68 70 66 67 70 68 73 66 63
12 12 10 12 16 17 20 24 33 40 49 56 61 62 62 65 67 74 76 73 72 72 70 68 73 75 72 89 89 86 65 62 68 65 65 67 70 80 89 72 75 76 68
12 13 12 12 15 23 21 28 31 37 50 52 56 59 62 66 68 72 76 72 70 68 58 64 68 75 73 94 92 84 53 62 54 69 74 86 73 91 93 78 75 82 74
18 18 20 21 23 28 27 34 35 38 43 46 47 56 62 68 69 74 73 74 72 67 73 72 70 73 74 75 95 94 66 47 52 46 56 56 92 98 97 92 91 88 76
27 29 32 26 26 33 34 39 52 45 48 50 52 60 65 56 53 75 75 75 74 79 77 80 70 60 70 89 98 96 90 73 51 54 45 60 99 100 100 96 98 100 97
34 36 25 34 43 48 44 47 55 53 52 56 60 61 64 63 65 73 76 66 74 61 68 58 59 53 58 66 94 98 96 90 72 44 65 91 100 100 100 99 100 100 70
50 44 42 43 54 56 53 54 60 57 58 61 62 61 63 65 64 53 58 57 54 60 55 54 54 52 59 62 66 78 82 94 89 100 98 100 99 100 98 100 100 90 60
51 49 52 56 61 62 63 61 64 63 59 59 58 60 54 63 61 62 51 52 56 51 56 54 51 54 62 66 86 98 98 98 99 99 99 99 99 99 99 98 96 87 65
58 59 58 59 61 60 63 64 64 62 59 57 48 43 40 42 50 50 58 98 94 100 100 99 75 43 75 100 100 100 100 100 100 99 99 99 99 98 98 97 96 78 75

GFSMW_sfc_rhum_033.txt.gz
RH
26 27 29 29 30 35 42 51 55 62 55 51 50 47 43 42 37 34 43 48 49 56 61 53 58 51 64 53 54 51 54 46 38 33 33 33 31 31 27 25 28 30 41
26 28 30 28 30 37 46 57 61 67 64 53 55 47 46 35 36 35 47 48 51 56 57 63 74 56 84 61 62 59 67 36 34 40 33 37 33 28 27 27 27 31 26
26 30 30 30 30 38 47 56 66 68 67 63 56 55 48 45 38 38 39 47 53 54 62 60 57 58 58 82 64 58 56 40 36 51 44 42 59 32 30 35 32 35 28
25 28 28 30 30 35 41 55 65 69 67 71 58 68 50 44 37 40 36 42 54 53 53 58 56 64 52 76 60 52 55 59 43 37 36 52 54 68 63 35 33 34 32
23 26 28 29 28 31 37 46 65 72 69 72 70 56 61 40 37 35 54 60 69 56 49 59 61 65 57 65 68 66 68 50 45 36 36 42 33 40 46 68 58 35 31
20 24 27 28 28 28 33 43 64 75 73 72 74 72 68 59 42 44 40 40 41 49 60 54 65 73 64 58 61 67 67 67 52 39 38 35 37 37 38 36 45 45 55
18 23 26 28 31 32 36 41 61 74 73 70 71 72 70 72 68 58 42 48 38 37 56 65 71 60 69 61 65 74 66 67 60 65 39 34 34 32 32 33 34 34 31
16 20 25 28 32 34 39 43 56 71 71 70 74 75 73 54 53 55 41 40 36 37 49 63 61 63 62 64 66 58 59 64 61 63 65 37 35 33 34 35 35 38 34
16 19 22 26 31 34 41 46 54 65 68 64 70 74 74 70 56 62 61 45 54 36 47 56 63 62 62 65 69 56 67 62 65 64 65 52 32 32 32 32 33 36 38
14 17 20 23 27 29 34 41 47 60 63 61 64 65 69 72 66 63 66 60 54 57 52 55 57 62 64 65 72 61 64 70 56 48 65 65 38 35 34 32 32 33 35
12 15 19 21 24 27 30 36 42 52 58 59 62 64 63 64 68 63 63 65 62 61 62 63 62 63 64 66 72 70 62 70 71 63 62 68 68 36 32 34 34 34 36
11 15 18 19 21 25 27 31 36 40 50 54 61 62 62 63 62 67 63 65 67 64 65 64 66 64 63 65 70 69 56 65 69 67 67 62 50 70 65 38 61 47 49
12 15 15 18 19 21 26 27 32 32 35 48 50 56 59 60 62 65 66 66 68 68 59 65 68 68 64 66 68 70 68 63 64 67 70 67 66 70 52 56 45 41 47
12 13 13 14 18 22 29 31 28 29 31 35 41 52 58 58 58 62 67 65 68 70 68 65 67 67 65 63 63 66 69 68 62 66 67 67 67 70 72 63 68 59 48
14 14 15 18 22 26 30 33 29 31 31 38 39 48 57 59 61 64 66 68 68 68 68 69 66 67 62 52 65 64 66 70 68 65 66 65 68 74 71 57 66 70 57
11 11 12 17 20 23 30 32 36 33 34 42 42 49 57 64 66 68 69 71 70 71 71 70 68 67 54 64 75 68 62 68 71 70 68 66 79 78 80 78 81 70 73
11 11 11 12 18 19 25 29 37 37 39 46 47 50 58 64 69 68 71 73 75 72 75 71 69 70 68 75 77 80 58 64 67 71 69 63 49 76 66 83 80 84 83
12 11 8 10 13 10 13 24 26 46 48 49 51 53 57 61 67 71 72 74 72 74 73 72 73 72 66 82 82 80 63 64 66 67 70 71 65 69 70 70 71 70 69
11 10 9 9 15 11 14 18 27 35 47 50 54 54 56 61 66 71 74 72 72 72 72 70 74 76 72 87 87 84 62 62 68 65 66 68 70 76 85 74 77 78 74
10 11 10 10 10 15 12 14 18 28 45 49 52 56 58 63 66 70 75 73 71 70 60 67 70 76 74 89 90 84 54 62 58 68 70 84 71 88 88 77 79 83 78
27 23 21 20 20 18 15 28 25 26 34 42 47 57 60 66 67 71 73 74 73 68 74 70 70 72 74 74 95 91 66 53 54 53 56 56 86 93 93 86 78 80 75
30 25 24 26 30 26 26 39 44 40 44 45 52 58 64 55 52 73 74 75 76 78 77 78 69 59 70 87 94 94 85 73 56 54 48 54 88 93 96 92 90 98 95
31 20 22 33 28 31 35 46 53 52 50 55 61 61 64 64 64 72 76 67 75 62 67 58 62 59 52 62 94 98 95 88 70 50 56 68 92 96 96 93 100 100 95
36 35 37 37 36 45 47 48 51 52 56 62 65 63 64 67 65 52 55 56 52 56 58 51 54 50 53 49 51 68 79 94 82 88 77 89 82 87 86 97 99 97 97
48 46 47 48 54 58 60 55 55 54 54 56 55 57 50 60 62 62 46 48 55 48 46 49 46 46 46 44 59 60 59 67 74 79 91 96 98 99 99 99 99 99 98
52 55 55 57 58 58 60 62 61 63 57 56 50 44 41 43 50 48 57 93 92 96 100 100 89 59 87 97 99 100 100 100 100 97 98 99 98 98 98 98 98 98 98

GFSMW_sfc_rhum_036.txt.gz
RH
29 31 31 30 33 41 52 57 62 70 67 65 66 64 60 62 61 60 60 72 69 71 77 85 89 76 76 78 72 70 71 72 62 66 61 61 48 48 48 53 49 59 52
27 32 32 31 32 43 54 62 64 71 69 65 69 64 66 57 57 60 65 64 66 72 74 81 80 76 86 82 74 74 83 69 61 73 66 70 64 49 46 54 46 50 51
27 31 34 33 34 45 54 62 68 72 72 70 69 72 69 69 62 59 60 62 65 69 76 76 82 81 82 90 83 76 76 76 63 68 76 77 68 69 58 54 53 51 59
27 30 33 34 34 42 49 62 68 72 72 74 69 76 65 62 59 60 60 61 66 68 72 76 78 81 83 83 86 76 78 76 70 65 60 69 74 75 66 65 61 58 48
24 29 30 34 32 37 47 57 70 74 75 74 78 68 70 59 56 59 68 74 75 72 64 74 78 80 78 86 83 81 81 79 78 68 66 68 71 67 75 71 69 62 63
23 28 30 33 33 35 45 54 72 78 77 77 76 81 75 70 59 61 62 63 66 66 73 72 77 81 80 83 85 84 83 85 82 75 70 69 70 70 70 73 68 69 68
22 27 33 33 36 38 45 52 72 79 77 76 76 77 78 75 78 74 58 62 57 62 72 77 82 78 81 82 81 85 85 84 83 79 77 71 68 64 67 68 68 68 68
16 24 31 33 37 37 44 51 67 77 77 74 79 77 80 68 63 70 56 56 55 55 70 72 74 77 78 78 81 80 79 82 82 82 82 79 71 64 64 67 72 70 68
16 22 28 32 36 37 44 51 64 73 75 73 77 80 78 77 69 71 70 62 66 52 66 71 73 74 75 78 82 74 82 81 82 82 84 81 74 66 65 67 66 72 75
15 19 25 29 34 34 38 44 55 68 72 72 72 73 75 76 73 71 74 68 67 66 68 72 72 74 75 78 82 78 79 83 78 74 82 83 72 68 67 66 68 68 70
15 17 24 26 31 32 35 40 47 62 68 70 73 72 72 72 73 71 72 73 69 75 70 76 75 75 75 76 81 80 77 81 82 77 81 82 81 76 69 66 68 71 70
16 17 20 24 28 33 34 38 42 47 59 67 72 72 72 72 73 73 70 73 76 70 74 73 74 75 74 75 78 79 69 77 81 78 78 80 68 84 83 79 75 71 72
15 16 19 23 26 30 34 35 39 39 47 61 64 67 68 70 72 74 72 71 74 74 68 72 76 74 73 76 76 77 78 72 78 78 80 78 79 83 73 79 75 72 73
18 18 20 24 25 30 38 38 37 37 40 50 57 65 67 67 68 71 74 71 72 75 72 72 74 73 72 73 73 74 78 78 72 77 78 78 77 79 82 76 80 77 77
19 22 21 30 33 36 39 40 36 40 38 47 54 60 65 66 68 72 72 74 74 71 74 74 72 73 70 63 73 73 76 79 77 73 76 76 77 79 77 72 81 79 78
17 18 23 25 29 35 40 39 40 39 41 49 49 58 65 68 71 72 74 74 76 75 75 76 75 73 62 73 79 74 71 77 79 79 75 75 82 83 82 81 78 78 78
13 15 19 23 27 27 38 40 42 41 46 50 53 57 64 68 71 71 73 76 77 76 79 77 76 76 73 80 81 82 66 72 75 78 77 72 62 82 78 83 81 84 81
17 21 12 18 27 17 16 30 38 50 52 58 56 59 63 66 70 73 75 76 74 77 78 78 78 78 73 83 84 82 69 70 72 74 76 77 75 76 77 78 77 74 77
19 19 13 15 32 24 26 32 34 48 52 54 60 59 61 66 68 74 76 75 76 76 77 75 79 80 78 88 88 86 69 68 73 72 74 75 77 79 88 80 82 79 77
32 35 29 27 19 30 20 37 34 43 53 53 54 60 61 65 67 71 77 76 75 76 70 74 75 80 78 89 92 88 66 69 65 72 75 84 75 85 91 80 82 86 80
37 35 37 38 40 40 37 46 39 40 44 50 53 60 64 66 68 73 76 77 78 76 79 77 76 78 78 78 96 94 74 67 64 63 65 66 87 90 94 88 77 81 80
38 32 38 41 38 42 46 55 58 56 54 56 58 64 69 60 55 76 77 78 80 83 82 83 78 71 76 93 95 97 95 80 71 67 60 64 87 94 96 94 83 93 91
42 35 34 42 42 45 53 58 67 64 60 66 70 69 70 70 70 77 79 75 82 77 80 76 74 73 68 70 96 99 97 96 87 68 71 90 91 95 96 94 90 98 86
48 48 53 53 53 51 52 63 64 62 66 70 74 74 74 75 73 63 68 68 69 74 76 73 74 67 67 68 66 78 90 96 91 85 79 75 92 88 91 89 93 88 90
58 56 62 62 64 69 73 70 72 67 66 69 70 73 65 76 73 72 62 68 69 66 66 68 66 64 65 68 93 84 71 78 85 83 79 78 79 87 91 92 89 90 94
68 64 62 60 60 60 64 68 68 73 70 69 62 58 56 58 64 67 70 95 88 97 100 100 93 79 96 100 100 100 100 100 100 87 82 88 91 93 93 96 96 97 96